Data No, UTC Date,UTC Time,Latitude,Longitude,Course(deg),Temp(degC),Sal(psu),pH
500,2019/7/3,8:19,42-36.94N,141-37.08E,209,15.313,31.0193,8.04
501,2019/7/3,8:20,42-36.68N,141-36.89E,208,15.317,30.9989,8.04
502,2019/7/3,8:21,42-36.41N,141-36.81E,183,16.105,30.9683,8.05
503,2019/7/3,8:22,42-36.10N,141-36.82E,177,15.23,30.9601,8.06
504,2019/7/3,8:23,42-35.80N,141-36.83E,177,15.547,30.9381,8.07
505,2019/7/3,8:24,42-35.48N,141-36.85E,177,15.273,31.0164,8.08
506,2019/7/3,8:25,42-35.15N,141-36.86E,178,14.992,31.0482,8.09
507,2019/7/3,8:26,42-34.81N,141-36.87E,178,14.753,31.1154,8.1
508,2019/7/3,8:27,42-34.48N,141-36.88E,179,14.664,31.1992,8.11
509,2019/7/3,8:28,42-34.15N,141-36.88E,179,14.661,31.2451,8.12
510,2019/7/3,8:29,42-33.80N,141-36.89E,179,14.723,31.2562,8.13
511,2019/7/3,8:30,42-33.46N,141-36.89E,179,14.623,31.2559,8.13
512,2019/7/3,8:31,42-33.11N,141-36.89E,179,14.388,31.2425,8.13
513,2019/7/3,8:32,42-32.75N,141-36.90E,178,14.702,31.2662,8.13
514,2019/7/3,8:33,42-32.41N,141-36.91E,179,14.644,31.3074,8.14
515,2019/7/3,8:34,42-32.05N,141-36.91E,179,14.42,31.2754,8.14
516,2019/7/3,8:35,42-31.69N,141-36.92E,178,14.236,31.3061,8.15
517,2019/7/3,8:36,42-31.33N,141-36.94E,178,14.674,31.368,8.15
518,2019/7/3,8:37,42-30.97N,141-36.95E,178,14.995,31.4267,8.15
519,2019/7/3,8:38,42-30.60N,141-36.96E,178,14.131,31.3345,8.15
520,2019/7/3,8:39,42-30.24N,141-36.97E,178,13.399,31.3353,8.13
521,2019/7/3,8:40,42-29.87N,141-36.98E,179,13.233,31.5617,8.13
522,2019/7/3,8:41,42-29.50N,141-36.98E,179,13.108,31.725,8.13
523,2019/7/3,8:42,42-29.13N,141-36.99E,178,13.204,31.7687,8.13
524,2019/7/3,8:43,42-28.74N,141-37.00E,179,13.795,31.7663,8.13
525,2019/7/3,8:44,42-28.37N,141-37.01E,179,13.591,31.7393,8.13
526,2019/7/3,8:45,42-27.99N,141-37.01E,179,13.324,31.6788,8.13
527,2019/7/3,8:46,42-27.61N,141-37.01E,179,13.155,31.7497,8.14
528,2019/7/3,8:47,42-27.23N,141-37.02E,179,13.211,31.8607,8.15
529,2019/7/3,8:48,42-26.83N,141-37.02E,179,13.348,31.9206,8.15
530,2019/7/3,8:49,42-26.45N,141-37.02E,179,13.388,31.914,8.15
531,2019/7/3,8:50,42-26.07N,141-37.02E,179,13.583,31.902,8.15
532,2019/7/3,8:51,42-25.68N,141-37.02E,180,14.063,31.899,8.15
533,2019/7/3,8:52,42-25.29N,141-37.02E,179,13.846,31.8314,8.15
534,2019/7/3,8:53,42-24.91N,141-37.02E,179,13.514,31.7753,8.13
535,2019/7/3,8:54,42-24.53N,141-37.03E,179,13.505,31.8782,8.13
536,2019/7/3,8:55,42-24.15N,141-37.03E,179,13.481,31.9652,8.13
537,2019/7/3,8:56,42-23.76N,141-37.03E,179,13.445,32.0265,8.13
538,2019/7/3,8:57,42-23.37N,141-37.03E,179,13.531,32.0812,8.13
539,2019/7/3,8:58,42-22.98N,141-37.04E,179,13.826,32.1474,8.13
540,2019/7/3,8:59,42-22.60N,141-37.04E,179,13.957,32.171,8.13
541,2019/7/3,9:00,42-22.22N,141-37.05E,179,13.789,32.1423,8.13
542,2019/7/3,9:01,42-21.83N,141-37.05E,179,13.652,32.1497,8.13
543,2019/7/3,9:02,42-21.44N,141-37.05E,179,13.405,32.2149,8.13
544,2019/7/3,9:03,42-21.05N,141-37.06E,179,13.836,32.3051,8.13
545,2019/7/3,9:04,42-20.66N,141-37.06E,179,14.371,32.3448,8.13
546,2019/7/3,9:05,42-20.27N,141-37.06E,179,14.362,32.2806,8.13
547,2019/7/3,9:06,42-19.89N,141-37.06E,179,14.316,32.2223,8.12
548,2019/7/3,9:07,42-19.50N,141-37.06E,179,14.38,32.2603,8.11
549,2019/7/3,9:08,42-19.10N,141-37.06E,180,14.437,32.315,8.11
550,2019/7/3,9:09,42-18.71N,141-37.06E,179,14.43,32.359,8.1
551,2019/7/3,9:10,42-18.33N,141-37.06E,179,14.572,32.4176,8.1
552,2019/7/3,9:11,42-17.94N,141-37.07E,179,14.497,32.4849,8.1
553,2019/7/3,9:12,42-17.54N,141-37.07E,179,14.492,32.5424,8.1
554,2019/7/3,9:13,42-17.15N,141-37.07E,180,14.568,32.6122,8.1
555,2019/7/3,9:14,42-16.75N,141-37.07E,180,14.514,32.66,8.1
556,2019/7/3,9:15,42-16.36N,141-37.07E,180,14.584,32.6866,8.1
557,2019/7/3,9:16,42-15.98N,141-37.07E,179,14.779,32.7239,8.1
558,2019/7/3,9:17,42-15.59N,141-37.07E,179,15.301,32.7298,8.1
559,2019/7/3,9:18,42-15.20N,141-37.07E,179,14.909,32.6997,8.1
560,2019/7/3,9:19,42-14.81N,141-37.08E,179,14.664,32.6481,8.1
561,2019/7/3,9:20,42-14.42N,141-37.07E,180,14.501,32.7347,8.1
562,2019/7/3,9:21,42-14.03N,141-37.08E,179,14.501,32.8478,8.1
563,2019/7/3,9:22,42-13.65N,141-37.07E,180,14.594,32.8952,8.1
564,2019/7/3,9:23,42-13.26N,141-37.07E,179,14.931,32.8967,8.1
565,2019/7/3,9:24,42-12.87N,141-37.08E,179,14.693,32.8853,8.1
566,2019/7/3,9:25,42-12.49N,141-37.08E,179,14.62,32.8582,8.1
567,2019/7/3,9:26,42-12.11N,141-37.09E,179,14.661,32.9137,8.1
568,2019/7/3,9:27,42-11.73N,141-37.09E,179,14.772,32.9377,8.1
569,2019/7/3,9:28,42-11.34N,141-37.09E,179,14.727,32.9292,8.1
570,2019/7/3,9:29,42-10.96N,141-37.09E,179,14.667,32.924,8.1
571,2019/7/3,9:30,42-10.58N,141-37.10E,179,14.61,32.9393,8.1
572,2019/7/3,9:31,42-10.19N,141-37.10E,179,14.56,32.9592,8.1
573,2019/7/3,9:32,42-09.81N,141-37.11E,179,14.608,32.9647,8.1
574,2019/7/3,9:33,42-09.43N,141-37.11E,179,14.829,32.9692,8.11
575,2019/7/3,9:34,42-09.05N,141-37.11E,180,14.812,32.9386,8.1
576,2019/7/3,9:35,42-08.66N,141-37.11E,180,14.713,32.8946,8.1
577,2019/7/3,9:36,42-08.28N,141-37.10E,180,14.606,32.8887,8.1
578,2019/7/3,9:37,42-07.89N,141-37.10E,180,14.558,32.9222,8.1
579,2019/7/3,9:38,42-07.51N,141-37.10E,180,14.59,32.9431,8.1
580,2019/7/3,9:39,42-07.13N,141-37.10E,180,14.589,32.9567,8.1
581,2019/7/3,9:40,42-06.74N,141-37.09E,180,14.605,32.9596,8.1
582,2019/7/3,9:41,42-06.36N,141-37.09E,179,14.87,32.96,8.1
583,2019/7/3,9:42,42-05.98N,141-37.09E,180,14.977,32.9481,8.1
584,2019/7/3,9:43,42-05.59N,141-37.09E,180,14.915,32.8901,8.1
585,2019/7/3,9:44,42-05.20N,141-37.09E,180,15.156,32.8665,8.1
586,2019/7/3,9:45,42-04.82N,141-37.09E,179,15.26,32.8847,8.1
587,2019/7/3,9:46,42-04.43N,141-37.10E,179,15.17,32.8706,8.1
588,2019/7/3,9:47,42-04.05N,141-37.10E,179,15.477,32.8641,8.1
589,2019/7/3,9:48,42-03.66N,141-37.10E,179,15.246,32.8792,8.1
590,2019/7/3,9:49,42-03.28N,141-37.10E,180,14.872,32.8467,8.1
591,2019/7/3,9:50,42-02.89N,141-37.10E,180,14.341,32.901,8.1
592,2019/7/3,9:51,42-02.50N,141-37.10E,180,14.173,32.9895,8.1
593,2019/7/3,9:52,42-02.12N,141-37.10E,179,14.345,33.1245,8.1
594,2019/7/3,9:53,42-01.75N,141-37.10E,180,14.362,33.1103,8.11
595,2019/7/3,9:54,42-01.38N,141-37.10E,180,14.596,33.0402,8.11
596,2019/7/3,9:55,42-01.00N,141-37.09E,180,14.16,32.9859,8.11
597,2019/7/3,9:56,42-00.63N,141-37.09E,180,13.952,32.9504,8.11
598,2019/7/3,9:57,42-00.25N,141-37.08E,180,14.143,33.0162,8.11
599,2019/7/3,9:58,41-59.87N,141-37.07E,180,14.168,33.0344,8.11
600,2019/7/3,9:59,41-59.50N,141-37.07E,180,14.06,32.9589,8.12
601,2019/7/3,10:00,41-59.13N,141-37.06E,181,13.901,32.9335,8.11
602,2019/7/3,10:01,41-58.75N,141-37.05E,181,13.878,32.9411,8.12
603,2019/7/3,10:02,41-58.37N,141-37.04E,181,13.886,32.9264,8.12
604,2019/7/3,10:03,41-58.00N,141-37.03E,181,13.9,32.9122,8.12
605,2019/7/3,10:04,41-57.62N,141-37.01E,181,13.892,32.8875,8.13
606,2019/7/3,10:05,41-57.25N,141-37.00E,181,13.954,32.8557,8.13
607,2019/7/3,10:06,41-56.87N,141-36.99E,181,13.949,32.8343,8.12
608,2019/7/3,10:07,41-56.49N,141-36.98E,181,14.08,32.8028,8.12
609,2019/7/3,10:08,41-56.11N,141-36.97E,181,14.285,32.7797,8.13
610,2019/7/3,10:09,41-55.73N,141-36.96E,181,14.213,32.7348,8.13
611,2019/7/3,10:10,41-55.35N,141-36.94E,181,14.111,32.6961,8.13
612,2019/7/3,10:11,41-54.98N,141-36.93E,181,14.279,32.7207,8.13
613,2019/7/3,10:12,41-54.60N,141-36.92E,180,14.24,32.7453,8.13
614,2019/7/3,10:13,41-54.21N,141-36.91E,180,14.515,32.7373,8.12
615,2019/7/3,10:14,41-53.83N,141-36.91E,180,14.652,32.7271,8.13
616,2019/7/3,10:15,41-53.46N,141-36.91E,180,14.893,32.7106,8.12
617,2019/7/3,10:16,41-53.08N,141-36.90E,180,15.127,32.6854,8.11
618,2019/7/3,10:17,41-52.70N,141-36.90E,179,15.05,32.6575,8.12
619,2019/7/3,10:18,41-52.31N,141-36.90E,179,15.039,32.6716,8.11
620,2019/7/3,10:19,41-51.92N,141-36.91E,179,14.891,32.7275,8.11
621,2019/7/3,10:20,41-51.55N,141-36.91E,179,14.795,32.7788,8.11
622,2019/7/3,10:21,41-51.16N,141-36.91E,180,14.644,32.8371,8.11
623,2019/7/3,10:22,41-50.77N,141-36.91E,179,14.564,32.8926,8.11
624,2019/7/3,10:23,41-50.39N,141-36.91E,179,14.3,32.9185,8.12
625,2019/7/3,10:24,41-50.00N,141-36.92E,179,14.425,32.9221,8.11
626,2019/7/3,10:25,41-49.61N,141-36.92E,179,14.369,32.9344,8.12
627,2019/7/3,10:26,41-49.23N,141-36.93E,179,14.351,32.9147,8.12
628,2019/7/3,10:27,41-48.84N,141-36.93E,179,14.932,32.825,8.13
629,2019/7/3,10:28,41-48.45N,141-36.93E,179,14.994,32.7624,8.12
630,2019/7/3,10:29,41-48.06N,141-36.94E,179,15.15,32.6357,8.13
631,2019/7/3,10:30,41-47.68N,141-36.95E,179,14.861,32.572,8.12
632,2019/7/3,10:31,41-47.30N,141-36.95E,179,14.484,32.5283,8.12
633,2019/7/3,10:32,41-46.92N,141-36.96E,180,14.162,32.5992,8.12
634,2019/7/3,10:33,41-46.54N,141-36.96E,179,14.356,32.7237,8.12
635,2019/7/3,10:34,41-46.16N,141-36.96E,179,14.372,32.761,8.12
636,2019/7/3,10:35,41-45.78N,141-36.97E,179,14.293,32.7763,8.12
637,2019/7/3,10:36,41-45.41N,141-36.97E,179,14.299,32.7645,8.12
638,2019/7/3,10:37,41-45.04N,141-36.98E,178,13.995,32.7752,8.12
639,2019/7/3,10:38,41-44.65N,141-36.99E,178,13.822,32.8181,8.11
640,2019/7/3,10:39,41-44.28N,141-37.00E,179,14.285,32.9386,8.11
641,2019/7/3,10:40,41-43.90N,141-37.01E,178,14.076,33.0306,8.11
642,2019/7/3,10:41,41-43.52N,141-37.02E,178,14.022,33.0609,8.1
643,2019/7/3,10:42,41-43.14N,141-37.03E,179,13.89,33.1962,8.1
644,2019/7/3,10:43,41-42.76N,141-37.04E,179,14.095,33.2934,8.1
645,2019/7/3,10:44,41-42.38N,141-37.05E,178,13.897,33.3609,8.1
646,2019/7/3,10:45,41-42.02N,141-37.06E,178,13.562,33.4296,8.1
647,2019/7/3,10:46,41-41.64N,141-37.07E,178,13.433,33.5185,8.1
648,2019/7/3,10:47,41-41.27N,141-37.09E,177,13.174,33.6404,8.1
649,2019/7/3,10:48,41-40.90N,141-37.11E,178,12.993,33.7226,8.1
650,2019/7/3,10:49,41-40.52N,141-37.12E,177,12.919,33.8079,8.1
651,2019/7/3,10:50,41-40.15N,141-37.14E,178,12.966,33.8487,8.1
652,2019/7/3,10:51,41-39.77N,141-37.15E,178,13.092,33.8522,8.1
653,2019/7/3,10:52,41-39.39N,141-37.17E,176,13.001,33.8364,8.1
654,2019/7/3,10:53,41-39.00N,141-37.19E,178,12.984,33.813,8.09
655,2019/7/3,10:54,41-38.62N,141-37.20E,178,13.186,33.8155,8.08
656,2019/7/3,10:55,41-38.23N,141-37.21E,179,13.222,33.7818,8.09
657,2019/7/3,10:56,41-37.84N,141-37.22E,178,13.746,33.727,8.09
658,2019/7/3,10:57,41-37.46N,141-37.24E,178,14.115,33.6559,8.1
659,2019/7/3,10:58,41-37.08N,141-37.25E,177,14.165,33.5115,8.1
660,2019/7/3,10:59,41-36.70N,141-37.27E,178,13.978,33.3317,8.1
661,2019/7/3,11:00,41-36.31N,141-37.27E,180,14.596,33.2237,8.11
662,2019/7/3,11:01,41-35.93N,141-37.26E,180,14.775,33.2329,8.12
663,2019/7/3,11:02,41-35.56N,141-37.27E,178,14.16,33.0815,8.12
664,2019/7/3,11:03,41-35.18N,141-37.28E,179,13.952,33.027,8.11
665,2019/7/3,11:04,41-34.80N,141-37.28E,179,13.817,33.1779,8.12
666,2019/7/3,11:05,41-34.42N,141-37.29E,179,13.692,33.268,8.12
667,2019/7/3,11:06,41-34.03N,141-37.29E,179,13.777,33.2992,8.12
668,2019/7/3,11:07,41-33.66N,141-37.30E,179,13.711,33.3032,8.12
669,2019/7/3,11:08,41-33.28N,141-37.30E,179,13.935,33.2934,8.12
670,2019/7/3,11:09,41-32.89N,141-37.31E,179,13.787,33.2675,8.12
671,2019/7/3,11:10,41-32.50N,141-37.31E,179,13.773,33.252,8.11
672,2019/7/3,11:11,41-32.11N,141-37.32E,178,13.776,33.2381,8.12
673,2019/7/3,11:12,41-31.72N,141-37.33E,178,13.874,33.2472,8.12
674,2019/7/3,11:13,41-31.33N,141-37.34E,178,14.024,33.2667,8.12
675,2019/7/3,11:14,41-30.94N,141-37.35E,178,14.083,33.2571,8.12
676,2019/7/3,11:15,41-30.55N,141-37.37E,178,14.153,33.2138,8.12
677,2019/7/3,11:16,41-30.15N,141-37.38E,178,14.172,33.1829,8.12
678,2019/7/3,11:17,41-29.76N,141-37.40E,177,14.248,33.153,8.13
679,2019/7/3,11:18,41-29.36N,141-37.42E,178,14.333,33.1159,8.12
680,2019/7/3,11:19,41-28.96N,141-37.44E,178,14.358,33.083,8.13
681,2019/7/3,11:20,41-28.56N,141-37.46E,178,14.215,33.1028,8.12
682,2019/7/3,11:21,41-28.15N,141-37.47E,178,14.222,33.1716,8.12
683,2019/7/3,11:22,41-27.74N,141-37.49E,178,14.21,33.2565,8.12
684,2019/7/3,11:23,41-27.34N,141-37.50E,178,14.342,33.2906,8.12
685,2019/7/3,11:24,41-26.93N,141-37.51E,178,14.418,33.2934,8.12
686,2019/7/3,11:25,41-26.52N,141-37.52E,178,14.364,33.2465,8.12
687,2019/7/3,11:26,41-26.11N,141-37.53E,178,14.587,33.2383,8.12
688,2019/7/3,11:27,41-25.70N,141-37.54E,178,14.705,33.2633,8.12
689,2019/7/3,11:28,41-25.29N,141-37.56E,178,15.08,33.2504,8.12
690,2019/7/3,11:29,41-24.87N,141-37.57E,179,15.131,33.226,8.12
691,2019/7/3,11:30,41-24.45N,141-37.57E,179,14.417,33.2131,8.11
692,2019/7/3,11:31,41-24.03N,141-37.57E,179,13.987,33.3449,8.11
693,2019/7/3,11:32,41-23.61N,141-37.58E,179,13.343,33.5821,8.11
694,2019/7/3,11:33,41-23.20N,141-37.58E,179,13.004,33.7017,8.12
695,2019/7/3,11:34,41-22.79N,141-37.60E,177,13.277,33.7053,8.12
696,2019/7/3,11:35,41-22.37N,141-37.65E,173,13.951,33.6166,8.13
697,2019/7/3,11:36,41-21.96N,141-37.72E,172,14.079,33.3869,8.13
698,2019/7/3,11:37,41-21.53N,141-37.80E,171,14.077,33.1321,8.13
699,2019/7/3,11:38,41-21.12N,141-37.88E,171,14.221,33.0633,8.13
700,2019/7/3,11:39,41-20.70N,141-37.95E,173,14.192,33.0374,8.12
701,2019/7/3,11:40,41-20.29N,141-38.02E,172,14.224,33.0191,8.13
702,2019/7/3,11:41,41-19.88N,141-38.09E,171,14.604,33.0553,8.13
703,2019/7/3,11:42,41-19.47N,141-38.17E,171,14.549,33.0718,8.12
704,2019/7/3,11:43,41-19.06N,141-38.25E,171,13.933,33.025,8.12
705,2019/7/3,11:44,41-18.67N,141-38.32E,172,13.845,33.0893,8.13
706,2019/7/3,11:45,41-18.27N,141-38.39E,172,13.653,33.2026,8.13
707,2019/7/3,11:46,41-17.87N,141-38.47E,172,13.932,33.1409,8.15
708,2019/7/3,11:47,41-17.47N,141-38.55E,171,14.458,33.0747,8.17
709,2019/7/3,11:48,41-17.08N,141-38.63E,170,14.716,32.9272,8.17
710,2019/7/3,11:49,41-16.69N,141-38.71E,171,14.525,32.7687,8.17
711,2019/7/3,11:50,41-16.30N,141-38.79E,170,14.247,32.7178,8.16
712,2019/7/3,11:51,41-15.91N,141-38.88E,170,14.181,32.7891,8.16
713,2019/7/3,11:52,41-15.52N,141-38.98E,167,14.16,32.8232,8.16
714,2019/7/3,11:53,41-15.14N,141-39.10E,165,13.719,32.8013,8.16
715,2019/7/3,11:54,41-14.76N,141-39.24E,165,14.013,32.8128,8.17
716,2019/7/3,11:55,41-14.38N,141-39.36E,165,13.993,32.8178,8.17
717,2019/7/3,11:56,41-14.01N,141-39.49E,164,13.861,32.6986,8.17
718,2019/7/3,11:57,41-13.64N,141-39.63E,164,13.765,32.6748,8.17
719,2019/7/3,11:58,41-13.27N,141-39.76E,164,13.928,32.6833,8.17
720,2019/7/3,11:59,41-12.90N,141-39.90E,164,14.111,32.6643,8.17
721,2019/7/3,12:00,41-12.53N,141-40.04E,164,14.008,32.6112,8.17
722,2019/7/3,12:01,41-12.17N,141-40.17E,164,14.123,32.5768,8.18
723,2019/7/3,12:02,41-11.81N,141-40.30E,164,13.851,32.564,8.18
724,2019/7/3,12:03,41-11.45N,141-40.43E,164,13.798,32.596,8.18
725,2019/7/3,12:04,41-11.09N,141-40.56E,164,14.185,32.6371,8.18
726,2019/7/3,12:05,41-10.72N,141-40.70E,164,14.263,32.6193,8.18
727,2019/7/3,12:06,41-10.36N,141-40.84E,164,14.636,32.5375,8.18
728,2019/7/3,12:07,41-10.00N,141-40.97E,164,14.373,32.5062,8.18
729,2019/7/3,12:08,41-09.65N,141-41.10E,164,14.203,32.4811,8.18
730,2019/7/3,12:09,41-09.29N,141-41.23E,164,13.778,32.5566,8.18
731,2019/7/3,12:10,41-08.94N,141-41.36E,164,13.58,32.6443,8.18
732,2019/7/3,12:11,41-08.57N,141-41.50E,164,13.56,32.7039,8.18
733,2019/7/3,12:12,41-08.22N,141-41.62E,165,13.632,32.7142,8.18
734,2019/7/3,12:13,41-07.86N,141-41.73E,167,13.77,32.6636,8.18
735,2019/7/3,12:14,41-07.50N,141-41.84E,167,13.795,32.607,8.18
736,2019/7/3,12:15,41-07.13N,141-41.95E,167,13.889,32.5695,8.18
737,2019/7/3,12:16,41-06.77N,141-42.05E,167,14.165,32.5597,8.18
738,2019/7/3,12:17,41-06.40N,141-42.16E,167,14.323,32.5603,8.18
739,2019/7/3,12:18,41-06.04N,141-42.26E,167,14.448,32.5501,8.17
740,2019/7/3,12:19,41-05.67N,141-42.37E,167,14.563,32.573,8.17
741,2019/7/3,12:20,41-05.32N,141-42.48E,165,14.542,32.6082,8.16
742,2019/7/3,12:21,41-04.96N,141-42.62E,162,14.404,32.643,8.16
743,2019/7/3,12:22,41-04.62N,141-42.78E,160,14.257,32.6913,8.16
744,2019/7/3,12:23,41-04.27N,141-42.95E,159,14.131,32.7406,8.16
745,2019/7/3,12:24,41-03.91N,141-43.12E,159,13.875,32.7754,8.16
746,2019/7/3,12:25,41-03.57N,141-43.30E,159,13.864,32.7885,8.16
747,2019/7/3,12:26,41-03.23N,141-43.46E,159,13.88,32.7682,8.16
748,2019/7/3,12:27,41-02.88N,141-43.63E,160,13.941,32.7213,8.17
749,2019/7/3,12:28,41-02.53N,141-43.80E,160,13.889,32.6778,8.17
750,2019/7/3,12:29,41-02.17N,141-43.96E,161,13.923,32.6458,8.17
751,2019/7/3,12:30,41-01.83N,141-44.11E,162,14.022,32.6429,8.17
752,2019/7/3,12:31,41-01.48N,141-44.25E,163,14.157,32.6419,8.17
753,2019/7/3,12:32,41-01.12N,141-44.38E,164,14.765,32.6238,8.17
754,2019/7/3,12:33,41-00.76N,141-44.50E,166,15.337,32.5839,8.16
755,2019/7/3,12:34,41-00.41N,141-44.60E,167,14.591,32.467,8.16
756,2019/7/3,12:35,41-00.05N,141-44.71E,167,14.46,32.4619,8.16
757,2019/7/3,12:36,40-59.69N,141-44.80E,169,14.863,32.687,8.16
758,2019/7/3,12:37,40-59.33N,141-44.89E,169,14.867,32.7432,8.15
759,2019/7/3,12:38,40-58.97N,141-44.97E,169,14.877,32.6975,8.15
760,2019/7/3,12:39,40-58.61N,141-45.06E,169,14.694,32.7128,8.15
761,2019/7/3,12:40,40-58.25N,141-45.14E,170,14.696,32.7532,8.15
762,2019/7/3,12:41,40-57.89N,141-45.22E,169,15.131,32.8003,8.15
763,2019/7/3,12:42,40-57.53N,141-45.31E,169,14.992,32.7757,8.15
764,2019/7/3,12:43,40-57.17N,141-45.40E,169,14.916,32.7363,8.15
765,2019/7/3,12:44,40-56.81N,141-45.48E,169,14.702,32.8033,8.15
766,2019/7/3,12:45,40-56.45N,141-45.57E,169,14.577,32.8746,8.13
767,2019/7/3,12:46,40-56.09N,141-45.66E,169,14.849,32.9272,8.15
768,2019/7/3,12:47,40-55.72N,141-45.75E,169,14.482,32.9217,8.15
769,2019/7/3,12:48,40-55.36N,141-45.84E,169,14.293,32.8492,8.15
770,2019/7/3,12:49,40-55.00N,141-45.93E,168,14.652,32.8694,8.15
771,2019/7/3,12:50,40-54.64N,141-46.03E,168,14.162,32.8347,8.15
772,2019/7/3,12:51,40-54.28N,141-46.12E,167,14.255,32.7506,8.16
773,2019/7/3,12:52,40-53.91N,141-46.24E,166,14.533,32.7607,8.16
774,2019/7/3,12:53,40-53.55N,141-46.35E,166,14.367,32.6895,8.17
775,2019/7/3,12:54,40-53.20N,141-46.46E,166,14.143,32.6079,8.17
776,2019/7/3,12:55,40-52.84N,141-46.57E,166,14.145,32.6342,8.17
777,2019/7/3,12:56,40-52.47N,141-46.69E,166,14.257,32.6794,8.17
778,2019/7/3,12:57,40-52.12N,141-46.81E,166,14.498,32.6417,8.17
779,2019/7/3,12:58,40-51.76N,141-46.92E,165,14.169,32.5839,8.18
780,2019/7/3,12:59,40-51.40N,141-47.04E,165,13.721,32.5658,8.18
781,2019/7/3,13:00,40-51.03N,141-47.16E,166,14.129,32.6745,8.18
782,2019/7/3,13:01,40-50.66N,141-47.27E,166,13.949,32.6995,8.18
783,2019/7/3,13:02,40-50.30N,141-47.38E,167,13.907,32.6284,8.18
784,2019/7/3,13:03,40-49.93N,141-47.48E,168,13.753,32.6589,8.18
785,2019/7/3,13:04,40-49.57N,141-47.58E,168,13.777,32.6806,8.18
786,2019/7/3,13:05,40-49.20N,141-47.68E,168,14.406,32.7446,8.18
787,2019/7/3,13:06,40-48.83N,141-47.78E,168,14.52,32.7665,8.18
788,2019/7/3,13:07,40-48.46N,141-47.88E,168,14.802,32.698,8.18
789,2019/7/3,13:08,40-48.09N,141-47.97E,169,14.841,32.7471,8.17
790,2019/7/3,13:09,40-47.72N,141-48.06E,168,14.753,32.8095,8.17
791,2019/7/3,13:10,40-47.34N,141-48.16E,169,14.472,32.892,8.16
792,2019/7/3,13:11,40-46.97N,141-48.25E,169,14.526,32.9763,8.16
793,2019/7/3,13:12,40-46.59N,141-48.34E,169,14.456,33.0083,8.17
794,2019/7/3,13:13,40-46.23N,141-48.43E,169,14.336,32.9657,8.17
795,2019/7/3,13:14,40-45.86N,141-48.52E,169,14.353,32.9258,8.17
796,2019/7/3,13:15,40-45.49N,141-48.61E,169,14.423,32.9086,8.18
797,2019/7/3,13:16,40-45.12N,141-48.70E,169,14.773,32.8848,8.17
798,2019/7/3,13:17,40-44.74N,141-48.79E,169,15.083,32.8838,8.17
799,2019/7/3,13:18,40-44.37N,141-48.89E,168,14.994,32.9099,8.17
800,2019/7/3,13:19,40-44.00N,141-48.98E,169,14.876,33.0026,8.16
801,2019/7/3,13:20,40-43.63N,141-49.07E,168,15.549,33.1736,8.16
802,2019/7/3,13:21,40-43.26N,141-49.17E,167,15.655,33.2657,8.15
803,2019/7/3,13:22,40-42.89N,141-49.29E,166,15.757,33.2846,8.15
804,2019/7/3,13:23,40-42.52N,141-49.41E,166,15.979,33.3562,8.15
805,2019/7/3,13:24,40-42.15N,141-49.53E,166,15.89,33.445,8.15
806,2019/7/3,13:25,40-41.79N,141-49.64E,166,15.716,33.5204,8.15
807,2019/7/3,13:26,40-41.42N,141-49.76E,166,15.442,33.5837,8.14
808,2019/7/3,13:27,40-41.05N,141-49.88E,166,15.416,33.6411,8.14
809,2019/7/3,13:28,40-40.68N,141-50.01E,165,15.53,33.6588,8.15
810,2019/7/3,13:29,40-40.32N,141-50.13E,165,15.654,33.5956,8.14
811,2019/7/3,13:30,40-39.95N,141-50.25E,166,16.017,33.5459,8.15
812,2019/7/3,13:31,40-39.58N,141-50.37E,165,16.174,33.5053,8.15
813,2019/7/3,13:32,40-39.20N,141-50.50E,166,16.018,33.4909,8.14
814,2019/7/3,13:33,40-38.84N,141-50.61E,166,16.229,33.5467,8.14
815,2019/7/3,13:34,40-38.47N,141-50.73E,166,16.287,33.6191,8.13
816,2019/7/3,13:35,40-38.09N,141-50.85E,166,16.378,33.6358,8.13
817,2019/7/3,13:36,40-37.72N,141-50.97E,166,16.349,33.6512,8.13
818,2019/7/3,13:37,40-37.35N,141-51.08E,167,16.292,33.6587,8.12
819,2019/7/3,13:38,40-36.98N,141-51.19E,167,16.218,33.6838,8.12
820,2019/7/3,13:39,40-36.61N,141-51.31E,166,16.164,33.706,8.12
821,2019/7/3,13:40,40-36.23N,141-51.42E,167,16.09,33.7063,8.12
822,2019/7/3,13:41,40-35.85N,141-51.53E,166,16.07,33.6975,8.12
823,2019/7/3,13:42,40-35.49N,141-51.64E,167,16.032,33.6851,8.12
824,2019/7/3,13:43,40-35.11N,141-51.75E,167,15.948,33.6655,8.11
825,2019/7/3,13:44,40-34.74N,141-51.86E,167,15.891,33.654,8.1
826,2019/7/3,13:45,40-34.37N,141-51.97E,168,15.809,33.6624,8.11
827,2019/7/3,13:46,40-33.99N,141-52.07E,168,15.813,33.6592,8.12
828,2019/7/3,13:47,40-33.61N,141-52.17E,168,15.828,33.6577,8.12
829,2019/7/3,13:48,40-33.24N,141-52.27E,168,15.798,33.6341,8.13
830,2019/7/3,13:49,40-32.87N,141-52.37E,168,15.801,33.6163,8.13
831,2019/7/3,13:50,40-32.50N,141-52.48E,168,15.677,33.607,8.13
832,2019/7/3,13:51,40-32.12N,141-52.58E,168,15.525,33.5947,8.13
833,2019/7/3,13:52,40-31.74N,141-52.68E,168,15.386,33.5976,8.13
834,2019/7/3,13:53,40-31.38N,141-52.78E,168,15.392,33.5843,8.13
835,2019/7/3,13:54,40-31.00N,141-52.88E,168,15.449,33.5401,8.13
836,2019/7/3,13:55,40-30.63N,141-52.98E,168,15.412,33.4776,8.14
837,2019/7/3,13:56,40-30.26N,141-53.08E,169,15.409,33.4346,8.13
838,2019/7/3,13:57,40-29.88N,141-53.19E,167,15.387,33.4341,8.14
839,2019/7/3,13:58,40-29.51N,141-53.29E,167,15.198,33.4458,8.14
840,2019/7/3,13:59,40-29.14N,141-53.40E,167,15.014,33.4748,8.14
841,2019/7/3,14:00,40-28.77N,141-53.51E,167,14.776,33.5135,8.13
842,2019/7/3,14:01,40-28.39N,141-53.61E,167,14.633,33.5581,8.14
843,2019/7/3,14:02,40-28.02N,141-53.72E,167,14.711,33.5923,8.14
844,2019/7/3,14:03,40-27.66N,141-53.82E,167,15.045,33.5915,8.15
845,2019/7/3,14:04,40-27.29N,141-53.93E,167,15.013,33.5515,8.15
846,2019/7/3,14:05,40-26.92N,141-54.03E,167,15.049,33.4623,8.15
847,2019/7/3,14:06,40-26.54N,141-54.14E,167,15.666,33.4478,8.14
848,2019/7/3,14:07,40-26.17N,141-54.25E,167,15.762,33.4029,8.13
849,2019/7/3,14:08,40-25.80N,141-54.36E,167,15.87,33.2782,8.13
850,2019/7/3,14:09,40-25.43N,141-54.47E,167,16.211,33.2647,8.13
851,2019/7/3,14:10,40-25.06N,141-54.58E,167,16.109,33.2506,8.13
852,2019/7/3,14:11,40-24.69N,141-54.69E,167,15.755,33.2184,8.13
853,2019/7/3,14:12,40-24.33N,141-54.80E,167,15.716,33.2924,8.13
854,2019/7/3,14:13,40-23.96N,141-54.90E,168,15.771,33.4117,8.13
855,2019/7/3,14:14,40-23.59N,141-55.00E,167,15.913,33.4423,8.13
856,2019/7/3,14:15,40-23.22N,141-55.11E,167,15.847,33.4372,8.13
857,2019/7/3,14:16,40-22.85N,141-55.23E,167,15.861,33.4139,8.13
858,2019/7/3,14:17,40-22.48N,141-55.33E,167,15.898,33.4227,8.12
859,2019/7/3,14:18,40-22.11N,141-55.44E,167,16.076,33.4313,8.13
860,2019/7/3,14:19,40-21.74N,141-55.55E,167,16.072,33.4197,8.13
861,2019/7/3,14:20,40-21.37N,141-55.65E,167,16.109,33.4095,8.12
862,2019/7/3,14:21,40-21.00N,141-55.76E,167,16.128,33.4168,8.12
863,2019/7/3,14:22,40-20.63N,141-55.87E,167,16.221,33.4253,8.12
864,2019/7/3,14:23,40-20.25N,141-55.97E,167,16.353,33.4377,8.12
865,2019/7/3,14:24,40-19.88N,141-56.08E,167,16.393,33.4296,8.12
866,2019/7/3,14:25,40-19.52N,141-56.18E,168,16.461,33.4217,8.13
867,2019/7/3,14:26,40-19.15N,141-56.28E,167,16.436,33.4258,8.13
868,2019/7/3,14:27,40-18.77N,141-56.39E,168,16.484,33.4311,8.12
869,2019/7/3,14:28,40-18.40N,141-56.49E,167,16.405,33.4549,8.12
870,2019/7/3,14:29,40-18.03N,141-56.60E,167,16.336,33.4754,8.12